TimeEDT,TemperatureF,Dew PointF,Humidity,Sea Level PressureIn,VisibilityMPH,Wind Direction,Wind SpeedMPH,Gust SpeedMPH,PrecipitationIn,Events,Conditions,WindDirDegrees,DateUTC
12:14 AM,27.0,18.3,70,30.09,10.0,ESE,12.7,18.4,N/A,,Clear,110,2013-03-18 04:14:00
12:35 AM,27.0,18.3,70,30.08,10.0,East,11.5,17.3,N/A,,Clear,100,2013-03-18 04:35:00
12:54 AM,26.8,18.5,71,30.06,10.0,East,10.4,-,N/A,,Clear,100,2013-03-18 04:54:00
1:14 AM,26.8,18.9,72,30.07,10.0,ESE,6.9,-,N/A,,Clear,110,2013-03-18 05:14:00
1:35 AM,27.0,19.0,72,30.06,10.0,ESE,10.4,-,N/A,,Clear,110,2013-03-18 05:35:00
1:54 AM,27.0,19.4,73,30.06,10.0,East,9.2,-,N/A,,Clear,100,2013-03-18 05:54:00
2:15 AM,27.0,19.8,74,30.04,10.0,ESE,12.7,-,N/A,,Clear,110,2013-03-18 06:15:00
2:35 AM,27.0,19.9,75,30.03,10.0,ESE,9.2,16.1,N/A,,Clear,110,2013-03-18 06:35:00
2:54 AM,27.0,19.9,75,30.02,10.0,East,11.5,17.3,N/A,,Clear,100,2013-03-18 06:54:00
3:15 AM,26.8,20.1,76,30.00,10.0,East,11.5,19.6,N/A,,Clear,100,2013-03-18 07:15:00
3:35 AM,26.6,20.1,77,29.98,10.0,East,11.5,-,N/A,,Clear,100,2013-03-18 07:35:00
3:54 AM,26.6,20.1,77,29.97,10.0,East,9.2,-,N/A,,Clear,90,2013-03-18 07:54:00
4:15 AM,26.6,20.3,77,29.95,10.0,East,12.7,-,N/A,,Clear,90,2013-03-18 08:15:00
4:34 AM,26.6,20.3,77,29.94,10.0,East,11.5,-,N/A,,Clear,90,2013-03-18 08:34:00
4:54 AM,26.6,20.3,77,29.93,10.0,East,10.4,16.1,N/A,,Clear,90,2013-03-18 08:54:00
5:15 AM,27.0,20.7,77,29.92,10.0,East,13.8,17.3,N/A,,Clear,90,2013-03-18 09:15:00
5:34 AM,27.3,21.0,77,29.89,10.0,East,11.5,-,N/A,,Clear,100,2013-03-18 09:34:00
5:54 AM,27.5,21.2,77,29.89,10.0,East,15.0,-,N/A,,Mostly Cloudy,90,2013-03-18 09:54:00
6:15 AM,28.4,21.7,76,29.88,10.0,East,10.4,18.4,N/A,,Overcast,90,2013-03-18 10:15:00
6:34 AM,28.9,21.9,75,29.88,10.0,East,11.5,-,N/A,,Overcast,90,2013-03-18 10:34:00
6:55 AM,29.1,22.1,75,29.87,10.0,East,8.1,-,N/A,,Overcast,80,2013-03-18 10:55:00
7:15 AM,29.1,22.5,76,29.86,4.0,East,10.4,18.4,N/A,Snow,Light Snow,80,2013-03-18 11:15:00
7:34 AM,28.9,23.4,80,29.85,3.0,East,11.5,18.4,N/A,Snow,Light Snow,80,2013-03-18 11:34:00
7:55 AM,28.4,23.9,83,29.83,2.0,East,13.8,18.4,N/A,Snow,Light Snow,80,2013-03-18 11:55:00
8:15 AM,28.0,24.4,86,29.82,1.0,East,12.7,-,N/A,Snow,Light Snow,80,2013-03-18 12:15:00
8:34 AM,28.4,25.2,88,29.81,5.0,East,13.8,-,N/A,Snow,Light Snow,80,2013-03-18 12:34:00
8:55 AM,28.4,25.2,88,29.79,5.0,East,12.7,19.6,N/A,,Overcast,80,2013-03-18 12:55:00
9:15 AM,28.8,25.3,87,29.78,10.0,East,12.7,18.4,N/A,,Overcast,80,2013-03-18 13:15:00
9:34 AM,28.9,25.3,86,29.77,10.0,East,8.1,11.5,N/A,,Overcast,80,2013-03-18 13:34:00
9:55 AM,29.1,25.5,86,29.75,7.0,East,10.4,21.9,N/A,,Overcast,80,2013-03-18 13:55:00
10:14 AM,29.3,25.7,86,29.75,5.0,East,10.4,16.1,N/A,,Overcast,80,2013-03-18 14:14:00
10:34 AM,29.7,26.1,86,29.74,10.0,East,10.4,17.3,N/A,,Overcast,90,2013-03-18 14:34:00
10:55 AM,30.2,26.4,86,29.72,10.0,East,10.4,19.6,N/A,,Overcast,90,2013-03-18 14:55:00
11:14 AM,30.2,26.6,86,29.71,7.0,East,10.4,-,N/A,,Overcast,90,2013-03-18 15:14:00
11:34 AM,30.6,27.1,87,29.71,7.0,East,11.5,-,N/A,,Overcast,100,2013-03-18 15:34:00
11:55 AM,30.7,27.5,88,29.70,7.0,East,11.5,-,N/A,,Overcast,90,2013-03-18 15:55:00
12:14 PM,30.9,27.9,88,29.70,3.0,East,11.5,17.3,N/A,,Overcast,100,2013-03-18 16:14:00
12:35 PM,31.1,28.4,90,29.68,1.8,East,10.4,-,N/A,,Overcast,90,2013-03-18 16:35:00
12:54 PM,31.5,29.1,91,29.67,3.0,ESE,6.9,-,N/A,,Overcast,110,2013-03-18 16:54:00
1:15 PM,31.6,29.5,92,29.65,4.0,East,9.2,-,N/A,,Overcast,100,2013-03-18 17:15:00
1:35 PM,32.0,30.0,92,29.65,3.0,East,9.2,-,N/A,,Overcast,100,2013-03-18 17:35:00
1:54 PM,32.0,30.2,93,29.63,1.8,ESE,8.1,-,N/A,Snow,Light Snow,110,2013-03-18 17:54:00
2:15 PM,32.2,30.7,94,29.62,1.2,ESE,8.1,-,N/A,,Overcast,120,2013-03-18 18:15:00
2:35 PM,32.2,31.1,96,29.61,1.5,ESE,6.9,-,N/A,,Overcast,120,2013-03-18 18:35:00
2:54 PM,32.5,31.1,94,29.59,1.2,ESE,8.1,-,N/A,,Overcast,110,2013-03-18 18:54:00
3:15 PM,32.9,31.6,95,29.60,1.0,SE,6.9,-,N/A,Snow,Light Snow,140,2013-03-18 19:15:00
3:35 PM,33.1,32.0,96,29.60,1.2,SSE,4.6,-,N/A,Snow,Light Snow,150,2013-03-18 19:35:00
3:54 PM,33.1,32.0,96,29.59,1.5,SE,3.5,-,N/A,,Overcast,130,2013-03-18 19:54:00
4:15 PM,33.3,32.0,95,29.58,1.2,Calm,Calm,-,N/A,,Light Drizzle,0,2013-03-18 20:15:00
4:34 PM,33.3,32.0,95,29.59,1.0,SSW,3.5,-,N/A,Rain,Rain,200,2013-03-18 20:34:00
5:15 PM,33.6,32.0,94,29.57,2.5,SSW,3.5,-,N/A,,Light Drizzle,200,2013-03-18 21:15:00
5:34 PM,33.8,32.2,94,29.57,2.0,SSW,4.6,-,N/A,Rain,Rain,200,2013-03-18 21:34:00
5:55 PM,33.8,32.2,94,29.58,1.2,SW,4.6,-,N/A,Rain,Light Rain,220,2013-03-18 21:55:00
6:14 PM,33.8,32.4,94,29.58,1.5,SW,5.8,-,N/A,,Light Drizzle,220,2013-03-18 22:14:00
6:34 PM,33.8,32.4,94,29.58,1.5,SW,5.8,-,N/A,,Overcast,230,2013-03-18 22:34:00
6:55 PM,33.8,32.4,94,29.59,3.0,WSW,8.1,-,N/A,,Light Drizzle,250,2013-03-18 22:55:00
7:14 PM,33.8,32.2,94,29.59,4.0,WSW,8.1,-,N/A,,Overcast,250,2013-03-18 23:14:00
7:35 PM,33.8,32.0,93,29.61,3.0,WSW,8.1,17.3,N/A,Snow,Light Snow,250,2013-03-18 23:35:00
7:55 PM,33.1,32.0,96,29.62,4.0,WSW,11.5,17.3,N/A,Snow,Light Snow,250,2013-03-18 23:55:00
8:14 PM,33.1,31.6,94,29.63,4.0,WSW,9.2,-,N/A,,Overcast,250,2013-03-19 00:14:00
8:35 PM,32.9,31.5,94,29.64,3.0,West,10.4,17.3,N/A,Snow,Light Snow,260,2013-03-19 00:35:00
8:55 PM,32.9,31.1,93,29.65,5.0,West,11.5,-,N/A,Snow,Light Snow,260,2013-03-19 00:55:00
9:14 PM,32.9,31.1,93,29.65,7.0,West,11.5,16.1,N/A,,Overcast,260,2013-03-19 01:14:00
9:35 PM,33.1,31.1,92,29.65,7.0,WSW,10.4,16.1,N/A,,Overcast,250,2013-03-19 01:35:00
9:55 PM,33.3,31.1,92,29.66,7.0,WSW,10.4,16.1,N/A,,Overcast,250,2013-03-19 01:55:00
10:14 PM,33.4,31.1,91,29.66,4.0,WSW,9.2,-,N/A,,Overcast,240,2013-03-19 02:14:00
10:35 PM,33.3,31.3,92,29.66,5.0,WSW,9.2,-,N/A,,Overcast,240,2013-03-19 02:35:00
10:54 PM,33.3,30.9,91,29.66,7.0,West,18.4,24.2,N/A,,Overcast,260,2013-03-19 02:54:00
11:14 PM,32.0,28.9,88,29.67,7.0,West,19.6,31.1,N/A,,Overcast,270,2013-03-19 03:14:00
11:54 PM,30.2,24.1,78,29.69,10.0,West,20.7,28.8,N/A,,Overcast,270,2013-03-19 03:54:00